Weather History for KBEH - December, 2012

Change the Weather History Date:

Sunday, December 9, 2012

  Actual Average Record
Temperature  
Mean Temperature 38 °F -  
Max Temperature 43 °F 38 °F 62 °F (1991)
Min Temperature 33 °F 24 °F 3 °F (1989)
Degree Days  
Heating Degree Days 27    
Moisture  
Dew Point 35 °F    
Average Humidity 93    
Maximum Humidity 100    
Minimum Humidity 75    
Precipitation  
Precipitation 0.18 in - - ()
Sea Level Pressure  
Sea Level Pressure 29.89 in    
Wind  
Wind Speed 9 mph (ESE)    
Max Wind Speed 16 mph    
Max Gust Speed 22 mph    
Visibility 5 miles    
Events Rain , Snow    
Averages and records for this station are not official NWS values.
T = Trace of Precipitation, MM = Missing Value Source: NWS Daily Summary

Daily Weather History Graph

Daily Weather History Graph

Search for Another Location

Airport or City:

Trip Planner

Search our weather history database for the weather conditions in past years. The results will help you decide how hot, cold, wet, or windy it might be!

Date:

Astronomy

Dec. 09, 2012 Rise Set
Actual Time 8:02 AM EST 5:13 PM EST
Civil Twilight 7:31 AM EST 5:45 PM EST
Nautical Twilight 6:56 AM EST 6:20 PM EST
Astronomical Twilight 6:22 AM EST 6:54 PM EST
Moon 3:31 AM EST (12/9) 2:23 PM EST (12/9)
Length of Visible Light 10h 14m
Length of Day
9h 11m
Waning Crescent, 19% of the Moon is Illuminated
Dec 9
Waning Crescent
Dec 13
New
Dec 20
First Quarter
Dec 28
Full
Jan 4
Last Quarter

Hourly Weather History & Observations

Time (EST) Temp. Windchill Dew Point Humidity Pressure Visibility Wind Dir Wind Speed Gust Speed Precip Events Conditions
12:53 AM 34.0 °F 26.6 °F 27.0 °F 75% 30.14 in 10.0 mi East 9.2 mph - N/A   Overcast
1:53 AM 34.0 °F 24.6 °F 28.0 °F 79% 30.13 in 10.0 mi East 13.8 mph 19.6 mph N/A   Overcast
2:53 AM 34.0 °F 25.5 °F 28.9 °F 82% 30.13 in 10.0 mi ESE 11.5 mph - N/A   Overcast
3:22 AM 33.8 °F 25.8 °F 30.2 °F 87% 30.10 in 1.8 mi ESE 10.4 mph - 0.00 in Snow Light Snow
3:29 AM 33.8 °F 26.4 °F 30.2 °F 87% 30.10 in 1.8 mi ESE 9.2 mph - 0.00 in Snow Light Snow
3:50 AM 33.8 °F 27.0 °F 32.0 °F 93% 30.10 in 1.0 mi East 8.1 mph - 0.01 in Snow Light Snow
3:53 AM 33.1 °F 26.1 °F 32.0 °F 96% 30.12 in 1.0 mi East 8.1 mph - 0.01 in Snow Light Snow
4:03 AM 33.8 °F 27.0 °F 32.0 °F 93% 30.10 in 1.0 mi East 8.1 mph - 0.01 in Snow Light Snow
4:15 AM 33.8 °F 28.6 °F 32.0 °F 93% 30.09 in 2.0 mi East 5.8 mph - 0.01 in Snow Light Snow
4:20 AM 33.8 °F 27.7 °F 32.0 °F 93% 30.10 in 4.0 mi East 6.9 mph - 0.01 in Snow Light Snow
4:36 AM 33.8 °F 27.0 °F 32.0 °F 93% 30.09 in 7.0 mi East 8.1 mph - 0.01 in   Overcast
4:53 AM 33.1 °F 26.9 °F 32.0 °F 96% 30.10 in 8.0 mi East 6.9 mph - 0.01 in   Overcast
5:53 AM 34.0 °F 26.0 °F 30.9 °F 89% 30.09 in 8.0 mi East 10.4 mph - N/A   Overcast
6:53 AM 34.0 °F 24.2 °F 30.9 °F 89% 30.06 in 9.0 mi East 15.0 mph 20.7 mph N/A   Overcast
7:53 AM 35.1 °F 26.9 °F 32.0 °F 89% 30.03 in 9.0 mi East 11.5 mph - N/A   Overcast
8:30 AM 35.6 °F 26.2 °F 32.0 °F 87% 30.00 in 9.0 mi East 15.0 mph - N/A   Overcast
8:53 AM 36.0 °F 28.0 °F 33.1 °F 89% 30.02 in 9.0 mi ESE 11.5 mph - N/A   Overcast
9:17 AM 37.4 °F 30.3 °F 33.8 °F 87% 29.99 in 9.0 mi ESE 10.4 mph - N/A   Overcast
9:53 AM 37.0 °F 29.3 °F 34.0 °F 89% 29.99 in 10.0 mi ESE 11.5 mph - N/A   Overcast
10:53 AM 37.9 °F 30.5 °F 35.1 °F 89% 29.97 in 9.0 mi East 11.5 mph - 0.01 in Rain Light Rain
11:53 AM 37.9 °F 29.2 °F 35.1 °F 89% 29.91 in 3.0 mi East 15.0 mph 21.9 mph 0.02 in Rain Rain
12:05 PM 37.4 °F 28.2 °F 35.6 °F 93% 29.88 in 2.0 mi East 16.1 mph - 0.03 in Rain Rain
12:20 PM 37.4 °F 29.8 °F 35.6 °F 93% 29.87 in 2.0 mi East 11.5 mph - 0.06 in Rain Rain
12:36 PM 37.4 °F 30.3 °F 35.6 °F 93% 29.85 in 3.0 mi East 10.4 mph 19.6 mph 0.08 in Rain Light Rain
12:53 PM 37.0 °F 28.9 °F 36.0 °F 96% 29.86 in 8.0 mi East 12.7 mph - 0.08 in   Overcast
1:00 PM 37.4 °F 29.8 °F 35.6 °F 93% 29.84 in 7.0 mi East 11.5 mph 19.6 mph 0.00 in   Overcast
1:22 PM 37.4 °F 29.3 °F 35.6 °F 93% 29.82 in 8.0 mi East 12.7 mph - 0.00 in   Overcast
1:53 PM 37.9 °F 30.5 °F 36.0 °F 93% 29.81 in 9.0 mi ESE 11.5 mph 21.9 mph 0.01 in   Overcast
2:02 PM 37.4 °F 28.9 °F 35.6 °F 93% 29.79 in 9.0 mi East 13.8 mph - N/A   Overcast
2:30 PM 37.4 °F 30.8 °F 37.4 °F 100% 29.78 in 1.8 mi East 9.2 mph - 0.01 in Rain Rain
2:53 PM 37.9 °F 30.5 °F 37.0 °F 97% 29.79 in 2.0 mi East 11.5 mph - 0.02 in   Overcast
3:05 PM 37.4 °F 30.3 °F 37.4 °F 100% 29.76 in 1.5 mi East 10.4 mph - N/A   Overcast
3:19 PM 39.2 °F 33.6 °F 37.4 °F 93% 29.76 in 3.0 mi East 8.1 mph - N/A   Overcast
3:53 PM 39.0 °F 34.0 °F 37.9 °F 96% 29.78 in 2.5 mi East 6.9 mph - N/A   Overcast
4:11 PM 39.2 °F 34.2 °F 37.4 °F 93% 29.76 in 1.2 mi East 6.9 mph - N/A   Overcast
4:53 PM 39.0 °F 35.7 °F 37.9 °F 96% 29.78 in 1.2 mi East 4.6 mph - N/A   Overcast
5:03 PM 39.2 °F 37.0 °F 39.2 °F 100% 29.76 in 1.8 mi ESE 3.5 mph - 0.01 in   Overcast
5:44 PM 39.2 °F 35.0 °F 39.2 °F 100% 29.75 in 2.0 mi East 5.8 mph - 0.02 in   Overcast
5:53 PM 39.0 °F 34.8 °F 39.0 °F 100% 29.76 in 2.0 mi East 5.8 mph - 0.02 in   Overcast
6:24 PM 39.2 °F 35.9 °F 39.2 °F 100% 29.73 in 3.0 mi ESE 4.6 mph - N/A   Overcast
6:53 PM 39.0 °F 34.0 °F 39.0 °F 100% 29.74 in 5.0 mi ESE 6.9 mph - N/A   Overcast
7:43 PM 39.2 °F - 39.2 °F 100% 29.72 in 2.5 mi Calm Calm - N/A   Overcast
7:53 PM 39.9 °F 37.8 °F 39.9 °F 100% 29.73 in 2.0 mi East 3.5 mph - N/A   Overcast
8:48 PM 39.2 °F - 39.2 °F 100% 29.70 in 2.5 mi Calm Calm - N/A   Overcast
8:53 PM 39.9 °F - 39.9 °F 100% 29.71 in 2.5 mi Calm Calm - N/A   Overcast
9:01 PM 39.2 °F 35.9 °F 39.2 °F 100% 29.69 in 2.0 mi ESE 4.6 mph - N/A   Overcast
9:53 PM 39.9 °F - 39.9 °F 100% 29.70 in 2.5 mi Calm Calm - N/A   Overcast
10:04 PM 39.2 °F 37.0 °F 39.2 °F 100% 29.68 in 3.0 mi South 3.5 mph - N/A   Overcast
10:16 PM 41.0 °F 39.0 °F 41.0 °F 100% 29.68 in 3.0 mi SSW 3.5 mph - N/A   Overcast
10:53 PM 43.0 °F 36.4 °F 39.9 °F 89% 29.69 in 10.0 mi WSW 12.7 mph - N/A   Overcast
11:53 PM 42.1 °F 35.7 °F 39.0 °F 89% 29.69 in 10.0 mi WSW 11.5 mph - N/A   Overcast